Wind_Speed
8 8 7 8 10 12 14 16 17 20 21 22 22 23 23 25 26 27 27 27 28 28 28 27 27 26 26 27 27 26 26 26 26 26 27 28 28 28 28 28 27 26 26 26
8 7 7 9 11 12 14 16 19 20 22 22 23 24 25 26 27 27 27 27 27 27 26 25 25 24 24 24 24 23 23 23 23 23 22 23 23 24 23 23 23 22 22 23
9 8 9 11 12 13 15 17 19 20 22 23 23 24 26 27 27 27 26 26 26 25 24 23 23 23 22 21 21 21 21 20 20 20 21 21 20 20 20 20 20 20 21 21
8 8 9 12 13 14 17 18 19 21 22 22 23 24 26 26 26 25 25 25 24 23 22 21 20 20 20 20 19 18 17 18 18 17 17 17 18 18 18 18 18 19 19 19
9 8 9 14 13 15 17 18 19 20 22 23 23 24 25 25 25 25 24 22 22 21 20 19 18 18 18 18 17 16 15 16 16 16 16 15 15 15 15 16 16 17 17 17
8 8 11 13 13 15 18 19 20 21 22 23 23 24 24 24 24 22 21 19 19 18 17 16 15 15 15 15 14 13 13 14 14 14 13 12 12 13 13 13 13 14 15 15
9 9 12 13 15 17 18 20 21 22 22 22 23 23 24 24 22 20 18 17 16 15 14 13 13 12 11 11 11 11 11 11 11 11 11 11 11 12 11 11 11 12 12 13
9 9 12 13 16 16 17 20 21 21 21 22 22 23 23 22 20 18 16 15 14 12 11 10 10 10 9 9 8 8 8 8 8 8 9 9 9 9 9 10 10 10 11 12
10 10 12 14 15 17 18 19 20 21 21 21 21 21 21 20 18 16 14 13 11 9 9 8 8 9 9 8 7 7 7 7 7 7 7 8 8 8 9 9 9 10 10 11
10 11 12 13 15 16 17 19 20 20 21 21 21 20 19 18 16 14 12 11 9 8 8 8 7 7 7 6 6 5 6 6 6 6 7 7 8 8 8 8 9 9 10 10
10 10 12 13 15 16 17 18 19 20 20 21 20 19 18 16 14 12 11 9 9 8 7 7 6 7 7 5 5 5 5 5 6 6 6 7 7 7 7 8 8 8 8 9
10 10 12 13 14 15 16 17 18 19 20 20 19 18 17 15 13 11 9 9 8 7 6 6 6 5 5 5 5 5 5 5 5 5 5 5 6 6 6 6 6 7 7 8
10 10 11 12 13 14 16 17 17 18 19 19 18 17 16 14 12 10 9 8 8 7 6 6 5 5 5 5 5 5 5 5 5 5 5 5 5 5 5 5 6 6 7 7
9 9 10 11 12 13 15 16 17 18 18 18 17 17 15 14 12 10 9 8 7 6 6 6 5 5 5 5 5 5 6 6 5 6 6 6 6 6 6 6 6 7 7 7
8 8 9 10 11 13 14 15 16 17 17 16 16 16 15 14 12 10 9 8 7 7 6 7 7 7 6 6 6 6 6 7 7 8 8 7 7 7 7 8 8 8 8 8
8 7 8 9 10 12 13 14 15 15 16 16 16 16 15 14 13 11 10 9 9 8 8 7 8 8 8 8 7 7 7 8 9 9 10 10 10 10 10 10 10 10 9 9
8 7 7 8 9 11 12 13 13 14 15 15 15 16 15 15 14 13 11 10 10 10 9 9 9 9 10 10 10 10 10 10 11 11 11 11 11 12 12 12 12 12 11 11
8 7 6 7 8 9 10 11 12 13 14 15 15 15 15 15 15 14 13 13 12 12 11 11 11 11 12 12 12 12 12 12 12 12 12 13 13 13 13 13 13 13 13 13
8 7 6 5 6 7 8 10 11 12 13 14 14 15 15 15 15 14 14 14 14 13 13 13 13 13 13 13 13 12 12 12 13 13 13 14 14 14 14 14 14 14 14 14
9 7 5 4 4 5 7 8 10 11 12 13 14 14 15 15 15 15 15 14 14 14 14 14 14 14 13 14 14 13 13 14 14 14 14 13 13 13 14 14 14 14 15 14
9 7 5 3 3 4 5 7 8 9 10 11 13 14 14 15 16 16 16 15 15 14 14 14 14 14 13 13 13 13 13 14 13 13 13 13 13 13 13 13 14 14 14 14
11 9 6 4 2 2 3 5 7 8 9 10 12 13 14 14 15 16 16 16 16 15 15 14 14 14 14 13 12 12 13 13 12 12 12 12 12 12 12 13 13 13 13 13
12 10 8 5 3 1 2 3 5 6 8 9 10 11 12 13 14 14 15 16 16 16 15 15 14 14 14 13 12 12 12 12 12 12 12 12 12 11 12 12 12 12 12 12
13 11 9 7 5 2 1 1 2 4 6 7 8 10 11 12 13 13 14 14 15 15 15 14 14 14 14 13 13 13 13 12 12 12 12 12 12 12 12 11 11 11 12 12
15 13 11 9 7 4 2 1 0 2 3 5 6 8 9 10 11 12 12 13 13 13 13 13 13 13 13 13 12 13 13 12 12 12 12 12 12 12 12 12 12 12 12 12
17 15 13 11 9 7 5 3 2 1 1 3 4 5 7 8 9 10 11 11 12 12 12 12 12 12 12 12 12 12 12 12 12 12 12 12 11 11 11 11 12 12 12 11
19 17 15 13 11 9 7 5 4 2 1 0 2 3 4 5 7 8 8 9 10 10 10 11 11 11 11 11 11 11 11 11 11 11 11 11 11 11 11 11 11 12 12 12
Wind_Direction
250 271 276 282 287 288 290 292 294 295 298 300 303 302 302 302 302 301 299 297 294 291 289 289 287 284 282 280 280 278 275 275 275 273 272 271 269 269 268 266 264 266 269 267
250 266 278 286 294 296 294 294 296 297 300 304 306 306 304 303 303 302 300 298 295 293 290 289 288 285 283 283 282 280 277 276 276 273 273 272 268 267 267 266 267 268 268 269
247 263 278 288 292 298 300 301 302 302 304 308 308 307 306 305 303 302 301 299 297 295 294 291 288 287 287 286 285 283 280 279 277 273 269 270 270 268 266 269 267 267 270 271
258 266 271 284 292 299 301 302 306 307 309 312 310 309 309 308 306 304 302 300 298 296 294 292 289 290 289 287 287 284 282 280 278 278 276 275 272 273 270 268 267 270 274 274
259 271 276 286 294 300 304 308 312 312 314 315 313 312 313 312 310 308 305 302 301 299 297 294 293 291 290 287 287 285 284 285 281 278 275 276 273 272 270 266 266 270 274 277
265 275 280 292 305 309 310 312 316 317 317 317 316 315 317 316 314 310 308 306 304 301 299 296 296 295 292 290 288 285 285 286 285 282 277 276 274 273 273 270 271 273 276 278
272 277 284 301 306 310 312 316 318 320 320 319 319 320 320 320 319 317 312 309 306 304 301 299 301 298 298 296 293 289 290 288 285 284 282 283 281 280 279 279 281 282 282 283
268 274 285 299 305 310 315 318 319 322 322 322 321 321 321 322 321 322 320 315 310 307 305 304 303 298 300 300 301 298 296 294 289 288 290 290 293 294 294 291 288 290 292 291
269 280 292 302 307 313 317 321 323 325 326 326 325 325 326 326 326 325 324 322 318 315 312 308 305 307 307 305 304 300 297 297 295 294 299 302 304 303 304 300 298 298 297 298
273 284 298 306 311 313 317 322 326 329 331 332 332 332 332 332 331 330 328 328 326 323 320 318 317 318 319 316 310 305 305 308 307 304 303 302 304 304 309 310 309 308 305 303
275 290 302 310 315 318 322 326 331 334 335 336 336 337 337 337 338 337 336 335 335 331 328 324 320 322 325 325 322 321 320 314 316 318 313 310 309 306 305 309 312 311 310 308
280 294 305 314 320 325 329 333 336 338 339 340 341 343 344 344 344 345 344 345 345 343 342 342 338 337 337 337 338 338 335 333 331 332 334 332 329 325 319 319 322 322 322 322
281 295 307 317 325 331 335 338 340 342 343 345 348 350 352 353 353 353 354 354 356 357 359 1 5 8 6 6 7 8 7 6 3 3 4 1 355 349 343 343 341 338 337 336
281 294 307 317 327 334 338 341 344 346 348 351 354 357 360 1 2 2 3 5 9 14 20 27 31 34 34 31 32 32 29 27 23 20 16 13 12 13 12 8 5 2 358 354
277 291 304 317 329 336 341 345 349 352 355 359 2 5 8 9 11 14 17 22 27 31 35 39 41 44 46 45 42 39 40 42 43 41 38 37 36 35 34 29 24 20 17 14
268 287 302 319 331 339 345 350 355 0 4 7 10 13 16 19 21 25 30 37 42 47 49 52 53 52 50 49 48 50 54 57 57 55 53 52 50 48 45 41 37 32 27 26
259 278 298 317 331 341 349 355 1 6 10 14 17 20 23 28 33 39 45 49 53 57 59 62 63 62 60 61 63 65 66 66 66 63 60 58 56 53 50 47 44 41 39 38
253 269 290 311 329 342 351 359 6 11 16 21 25 28 30 35 40 46 51 55 58 62 65 67 66 66 66 68 68 67 68 67 65 63 62 61 58 54 51 48 47 45 43 41
243 259 282 308 329 342 352 2 11 17 23 27 30 33 36 40 44 48 53 56 59 63 66 68 68 67 68 69 68 68 68 68 66 65 63 61 58 54 51 49 48 47 45 45
234 246 265 296 329 344 357 10 18 24 29 32 35 37 39 43 47 51 55 59 62 64 66 67 68 68 68 69 68 66 67 67 67 66 63 60 57 54 52 51 50 49 48 47
223 231 245 272 319 350 7 17 23 29 34 37 40 42 45 48 50 53 56 59 62 64 65 66 67 68 68 67 67 67 67 66 65 63 61 58 56 53 51 50 49 49 49 48
216 222 229 242 273 352 14 23 30 35 39 43 46 48 50 52 54 56 58 60 62 64 65 66 66 67 67 66 65 65 64 63 63 61 59 57 54 51 49 48 48 47 46 44
213 216 221 227 235 277 360 23 35 42 46 49 50 51 53 55 55 57 58 60 61 63 64 63 63 64 65 64 62 62 62 61 59 57 55 52 50 47 46 45 44 42 40 39
210 213 217 220 223 225 249 28 47 50 50 50 51 52 53 54 55 56 57 58 59 61 61 61 61 62 62 61 59 59 59 58 55 53 51 50 48 46 44 42 40 37 35 33
210 212 215 218 218 215 214 212 95 59 53 52 53 53 54 54 53 53 54 55 56 57 57 57 57 57 58 57 55 56 55 53 51 49 47 45 43 41 38 36 34 33 31 30
210 212 215 216 216 214 213 210 199 143 68 58 55 53 53 53 51 50 50 50 51 52 52 52 51 50 51 51 50 50 50 49 48 45 42 39 37 35 33 30 28 26 24 23
211 212 214 216 216 217 217 216 215 215 209 81 54 47 46 46 45 44 44 44 44 44 45 46 46 45 44 44 43 42 42 41 40 37 34 32 30 28 25 23 21 19 18 15
Height
5777 5777 5777 5778 5778 5777 5775 5773 5771 5768 5765 5763 5760 5757 5754 5752 5749 5746 5743 5740 5738 5735 5733 5730 5728 5726 5725 5725 5724 5723 5723 5722 5722 5722 5722 5722 5722 5723 5723 5723 5724 5725 5725 5725
5776 5776 5776 5776 5775 5774 5772 5769 5767 5764 5761 5759 5756 5753 5750 5747 5744 5740 5737 5734 5731 5728 5725 5723 5722 5720 5719 5718 5717 5716 5716 5716 5716 5715 5715 5715 5716 5716 5716 5717 5718 5718 5718 5719
5774 5774 5774 5774 5773 5771 5769 5766 5764 5760 5758 5754 5752 5748 5745 5742 5738 5734 5731 5728 5725 5722 5719 5717 5716 5715 5713 5712 5711 5711 5710 5710 5710 5710 5710 5710 5710 5710 5711 5711 5712 5713 5713 5713
5771 5772 5772 5772 5769 5768 5765 5762 5760 5757 5753 5750 5747 5743 5740 5736 5732 5729 5725 5722 5719 5716 5714 5712 5711 5710 5709 5708 5707 5706 5706 5706 5705 5705 5705 5705 5705 5705 5706 5706 5707 5707 5708 5708
5769 5769 5769 5767 5765 5764 5762 5759 5756 5753 5749 5746 5742 5738 5735 5730 5726 5723 5719 5716 5714 5711 5709 5708 5706 5705 5704 5703 5703 5702 5702 5701 5701 5701 5701 5701 5701 5701 5701 5702 5702 5702 5703 5703
5767 5767 5766 5764 5762 5761 5760 5756 5753 5749 5745 5742 5738 5734 5731 5726 5721 5717 5714 5711 5709 5707 5705 5703 5702 5701 5700 5700 5699 5699 5698 5698 5698 5698 5698 5698 5698 5698 5698 5698 5698 5699 5699 5698
5765 5765 5763 5762 5760 5759 5758 5755 5750 5746 5742 5738 5734 5730 5726 5721 5717 5713 5710 5707 5705 5703 5701 5700 5699 5698 5697 5697 5696 5696 5696 5695 5695 5695 5695 5695 5695 5695 5695 5695 5695 5695 5695 5694
5764 5763 5764 5760 5759 5757 5755 5750 5747 5743 5739 5735 5730 5726 5721 5717 5713 5709 5706 5704 5702 5700 5699 5698 5697 5696 5695 5694 5694 5694 5693 5693 5693 5693 5693 5692 5692 5692 5692 5692 5691 5691 5691 5691
5762 5763 5760 5758 5756 5754 5751 5748 5744 5740 5736 5731 5727 5722 5718 5714 5710 5707 5704 5702 5700 5698 5697 5696 5695 5694 5693 5692 5692 5692 5692 5691 5691 5691 5690 5690 5690 5690 5690 5689 5689 5689 5688 5688
5759 5759 5758 5756 5754 5752 5749 5745 5742 5737 5733 5729 5724 5720 5715 5711 5708 5705 5702 5700 5698 5697 5696 5695 5693 5693 5692 5691 5691 5690 5690 5690 5689 5689 5689 5689 5688 5688 5688 5687 5687 5686 5686 5685
5758 5757 5756 5754 5752 5749 5746 5743 5739 5735 5731 5726 5722 5717 5713 5709 5706 5703 5701 5699 5697 5696 5695 5693 5692 5692 5691 5690 5690 5689 5689 5689 5688 5688 5687 5687 5687 5686 5686 5685 5685 5685 5684 5683
5757 5756 5755 5753 5750 5747 5744 5741 5737 5733 5729 5724 5720 5715 5711 5708 5705 5702 5700 5698 5696 5695 5694 5693 5692 5691 5690 5690 5689 5689 5688 5688 5688 5687 5687 5686 5685 5685 5684 5684 5684 5683 5682 5681
5755 5754 5753 5751 5749 5746 5743 5740 5736 5732 5728 5723 5719 5715 5711 5707 5704 5702 5700 5698 5696 5695 5694 5693 5692 5691 5690 5690 5689 5689 5688 5688 5687 5687 5686 5686 5685 5684 5684 5683 5683 5682 5681 5680
5753 5753 5752 5750 5748 5746 5743 5739 5735 5731 5727 5723 5719 5715 5711 5707 5704 5702 5700 5698 5697 5696 5695 5694 5693 5692 5691 5691 5690 5690 5689 5688 5688 5687 5687 5686 5685 5684 5684 5683 5682 5681 5680 5679
5752 5752 5751 5750 5748 5745 5742 5739 5735 5731 5727 5723 5719 5715 5712 5708 5705 5703 5701 5699 5698 5696 5696 5695 5694 5693 5692 5692 5691 5691 5690 5689 5689 5688 5687 5687 5686 5685 5684 5684 5683 5682 5681 5680
5751 5751 5750 5749 5747 5745 5742 5739 5736 5732 5728 5724 5721 5717 5713 5710 5707 5704 5702 5701 5700 5698 5697 5697 5696 5695 5694 5694 5693 5692 5692 5691 5691 5690 5689 5688 5688 5687 5686 5685 5684 5683 5682 5680
5750 5750 5750 5749 5747 5745 5742 5740 5736 5733 5730 5726 5723 5719 5716 5712 5709 5707 5705 5703 5702 5701 5700 5699 5698 5698 5697 5696 5695 5695 5694 5694 5693 5693 5692 5691 5690 5690 5689 5688 5686 5685 5684 5682
5749 5749 5749 5748 5747 5745 5743 5741 5738 5735 5732 5728 5725 5722 5719 5716 5713 5711 5709 5707 5705 5704 5703 5703 5702 5701 5700 5699 5699 5698 5698 5697 5696 5696 5695 5694 5693 5693 5691 5690 5689 5688 5686 5685
5748 5748 5748 5748 5747 5745 5744 5742 5739 5736 5734 5731 5728 5725 5723 5720 5717 5715 5712 5711 5709 5708 5707 5706 5705 5705 5704 5703 5702 5702 5701 5700 5700 5699 5698 5697 5697 5696 5695 5694 5692 5691 5689 5688
5747 5747 5748 5747 5747 5746 5744 5743 5741 5739 5736 5734 5731 5729 5726 5724 5721 5719 5716 5715 5713 5712 5711 5710 5709 5709 5708 5707 5706 5706 5705 5704 5703 5703 5702 5701 5700 5699 5698 5697 5696 5694 5693 5691
5745 5746 5747 5747 5747 5746 5745 5744 5742 5741 5739 5737 5735 5732 5730 5728 5725 5723 5721 5719 5718 5716 5715 5714 5714 5713 5712 5711 5710 5710 5709 5708 5707 5707 5706 5705 5704 5703 5702 5700 5699 5698 5696 5695
5744 5745 5746 5747 5747 5747 5746 5745 5744 5743 5741 5739 5738 5736 5734 5732 5730 5728 5726 5724 5722 5721 5720 5719 5718 5717 5716 5715 5715 5714 5713 5712 5711 5710 5709 5708 5707 5706 5705 5704 5702 5701 5699 5698
5742 5744 5745 5746 5747 5747 5747 5746 5745 5744 5743 5742 5741 5739 5737 5736 5734 5732 5730 5729 5727 5726 5724 5723 5722 5721 5720 5719 5718 5717 5716 5715 5714 5713 5712 5711 5710 5709 5708 5707 5705 5704 5702 5701
5741 5743 5744 5745 5746 5746 5747 5747 5746 5746 5745 5744 5743 5742 5740 5739 5737 5736 5734 5733 5731 5730 5729 5728 5727 5725 5724 5723 5722 5721 5720 5719 5718 5717 5716 5714 5713 5712 5711 5709 5708 5707 5705 5703
5739 5741 5743 5744 5745 5746 5746 5746 5747 5746 5746 5745 5745 5744 5743 5742 5741 5739 5738 5736 5735 5734 5733 5732 5730 5729 5728 5727 5726 5724 5723 5722 5721 5720 5719 5717 5716 5715 5713 5712 5710 5709 5707 5706
5736 5739 5741 5742 5744 5745 5746 5746 5746 5747 5747 5746 5746 5745 5745 5744 5743 5742 5741 5739 5738 5737 5736 5735 5733 5732 5731 5730 5729 5728 5726 5725 5724 5722 5721 5720 5718 5717 5716 5714 5713 5711 5709 5708
5733 5736 5738 5740 5742 5743 5745 5745 5746 5746 5747 5747 5747 5746 5746 5745 5745 5744 5743 5742 5741 5739 5738 5737 5736 5735 5734 5733 5732 5730 5729 5728 5726 5725 5723 5722 5721 5719 5718 5716 5714 5713 5711 5709